OpenBCM V1.13 (Linux)

Packet Radio Mailbox

DB0FHN

[JN59NK Nuernberg]

 Login: GUEST





  
I0OJJ  > KEPS     04.05.25 02:44l 354 Lines 16918 Bytes #999 (0) @ AMSAT
BID : ORB25124.1
Read: DJ6UX GUEST
Subj: 2Line Orbital Elements 25124.AMSAT
Path: DB0FHN<DB0FFL<OE5XBL<OE6XPE<DB0ERF<DK0WUE<PD0LPM<PI8ZTM<PI8LAP<VE2PKT<
      VE1LG<VE3CGR<VK2RZ<LU9DCE<EA2RCF<I0OJJ
Sent: 250504/0025z @:I0OJJ.ITA.EU [Rome] obcm1.08-6-g5b69
From: I0OJJ @ I0OJJ.ITA.EU (Gustavo)
To:   KEPS @ AMSAT
X-Info: This message was generated automatically


QST de W1STR

AMSAT Orbital Elements for Amateur Satellites in TLE Format
From Orbital Analysis Office
New England Sci-Tech STEM Education Center
Natick, MA May 04, 2025
To all radio amateurs


These element sets describe the orbits of various satellites 
in use by the amateur radio community. For details see:
www.amsat.org/keplerian-elements-formats/

A daily update of element sets is available at:
www.amsat.org/tle/daily-bulletin.txt
or without bulletin text:
www.amsat.org/tle/dailytle.txt


AO-07
1 07530U 74089B   25123.63043646 -.00000032  00000-0  87714-4 0  9995
2 07530 101.9943 127.5001 0012141 190.9124 280.2530 12.53688794309190
UO-11
1 14781U 84021B   25123.44746060  .00003102  00000-0  33310-3 0  9999
2 14781  97.7518  90.5608 0009507  97.8008 262.4289 14.89268356196114
AO-27
1 22825U 93061C   25123.57386617  .00000228  00000-0  10411-3 0  9996
2 22825  98.7392 184.9400 0007752 214.7696 145.2981 14.30785962648420
FO-29
1 24278U 96046B   25123.56359269  .00000042  00000-0  75724-4 0  9991
2 24278  98.5796  22.3220 0350943  78.5299 285.5029 13.53246036417763
NOAA-15
1 25338U 98030A   25123.85900551  .00000343  00000-0  15857-3 0  9996
2 25338  98.5381 149.8696 0011504 105.8870 254.3580 14.26957612403164
GO-32
1 25397U 98043D   25123.53022237  .00000189  00000-0  10184-3 0  9992
2 25397  98.9683 101.8811 0000978  12.1688 347.9514 14.24304917393015
ISS
1 25544U 98067A   25123.76994336  .00009070  00000-0  17067-3 0  9990
2 25544  51.6346 167.0693 0002284  76.2260 283.8983 15.49323238508271
NO-44
1 26931U 01043C   25123.55192725  .00000363  00000-0  16693-3 0  9998
2 26931  67.0512 223.5737 0005713 272.5817  87.4631 14.31715708231801
SO-50
1 27607U 02058C   25122.95561422  .00002217  00000-0  29396-3 0  9997
2 27607  64.5543 316.6637 0051844 342.8462  17.0889 14.81519193203655
CO-55
1 27844U 03031E   25123.57964541  .00000608  00000-0  28400-3 0  9997
2 27844  98.6772 132.3296 0008473 298.6375  61.3951 14.23965551133377
CO-57
1 27848U 03031J   25123.58112589  .00000516  00000-0  24685-3 0  9998
2 27848  98.6801 132.3645 0008623 317.9738  42.0778 14.23304421133104
RS-22
1 27939U 03042A   25123.84984319  .00002213  00000-0  35844-3 0  9993
2 27939  98.3258 292.4222 0012596 123.6614  14.0627 14.72253616155420
NOAA-18
1 28654U 05018A   25123.81603115  .00000311  00000-0  18848-3 0  9994
2 28654  98.8422 203.7052 0013426 230.3739 129.6249 14.13590514 28558
CO-58
1 28895U 05043F   25123.85341370  .00002996  00000-0  49705-3 0  9992
2 28895  98.2447 267.7586 0015643  66.4591 293.8256 14.70883784 41773
CO-65
1 32785U 08021C   25123.55349095  .00008576  00000-0  62388-3 0  9995
2 32785  97.7820  94.4606 0009360 349.1735  10.9287 15.04027561923517
AAUSAT2
1 32788U 08021F   25123.51271678  .00640849  00000-0  25022-2 0  9993
2 32788  97.5953 120.9436 0009272 139.3737 220.8227 15.85441253927544
CO-66
1 32791U 08021J   25123.59833974  .00019611  00000-0  97238-3 0  9994
2 32791  97.7270 102.8463 0001775 332.7714  27.3425 15.17773956924882
RS-30
1 32953U 08025A   25123.78401362  .00000053  00000-0  30858-3 0  9996
2 32953  82.5021 250.0579 0020474 125.4921 234.8073 12.43163532768964
NOAA-19
1 33591U 09005A   25123.88731708  .00000298  00000-0  18293-3 0  9995
2 33591  98.9993 188.3826 0014862 107.0810 253.1991 14.13354807836928
SRMSAT
1 37841U 11058D   25123.42843135  .00000559  00000-0  16040-3 0  9994
2 37841  19.9733  19.3643 0011704  16.7284 139.0589 14.11423114699858
ZACUBE-1
1 39417U 13066B   25123.34206738  .00008042  00000-0  70259-3 0  9996
2 39417  97.7767  80.5715 0044657 174.3218 185.8519 14.96278837619342
Delfi-N3xt
1 39428U 13066N   25123.51140539  .00011586  00000-0  11871-2 0  9994
2 39428  97.8353  41.5933 0087304 121.8642 239.1108 14.87795720613569
GOMX-1
1 39430U 13066Q   25123.87252113  .00002958  00000-0  46631-3 0  9994
2 39430  97.6880 344.7839 0131619 310.4162  48.5620 14.67501798610027
LO-74
1 39440U 13066AA  25123.60292070  .00007815  00000-0  79495-3 0  9993
2 39440  97.8473  68.4319 0060800 303.2425  56.2974 14.89660380615936
AO-73
1 39444U 13066AE  25123.37461891  .00013104  00000-0  99128-3 0  9993
2 39444  97.7781  85.1661 0041961 150.7295 209.6293 15.01751379618007
DTUSAT-2
1 40030U 14033W   25123.46462273  .00013241  00000-0  86963-3 0  9991
2 40030  98.0532  93.5108 0009292 174.3524 185.7809 15.07730899590809
EO-80
1 40032U 14033Y   25123.35411359  .00012225  00000-0  80168-3 0  9992
2 40032  98.0415  93.1020 0010502 119.7625 240.4647 15.07796412590768
LILACSAT-2
1 40908U 15049K   25123.86128503  .00015960  00000-0  42801-3 0  9995
2 40908  97.5091 143.3405 0007346 295.9567  64.0920 15.38034815532589
IO-86
1 40931U 15052B   25038.81889873  .00001817  00000-0  15548-3 0  9993
2 40931   6.0001 108.1159 0012838 187.7041 172.2889 14.78568669506492
Horyu-4
1 41340U 16012D   25123.04996401  .00036429  00000-0  10273-2 0  9997
2 41340  30.9977  24.0129 0007608  16.7286 343.3609 15.35166419507010
Lapan A3
1 41603U 16040E   25123.86910163  .00005636  00000-0  19863-3 0  9992
2 41603  97.1384 129.9235 0012400  48.2498 311.9801 15.29590778492170
CAS-2T
1 41847U 16066G   25123.45652007  .00001410  00000-0  21119-3 0  9998
2 41847  98.4209 198.2390 0345287 290.8951  65.5600 14.43385177445663
CAS-4B
1 42759U 17034B   25123.86946688  .00066378  00000-0  82844-3 0  9999
2 42759  43.0071 179.9369 0018591  30.7984 329.3966 15.58781140436868
CAS-4A
1 42761U 17034D   25123.86490065  .00068538  00000-0  82282-3 0  9991
2 42761  43.0107 177.4696 0019815  35.5584 324.6596 15.59758573436880
TechnoSat
1 42829U 17042E   25123.72702965  .00005658  00000-0  44079-3 0  9991
2 42829  97.3938 294.1988 0015327  49.4769 310.7788 15.01494650425194
AO-91
1 43017U 17073E   25123.61211637  .00011803  00000-0  61359-3 0  9993
2 43017  97.5293 355.3247 0172750 292.7591  65.5461 15.04150091403659
S-Net D
1 43186U 18014G   25123.23099008  .00009184  00000-0  54635-3 0  9998
2 43186  97.5649  26.5228 0009174   5.8915 354.2421 15.11434293396730
S-Net B
1 43187U 18014H   25123.23590796  .00008942  00000-0  53229-3 0  9998
2 43187  97.5656  26.4977 0009703   0.5765 359.5474 15.11416679396736
S-Net A
1 43188U 18014J   25123.29770319  .00009090  00000-0  54067-3 0  9992
2 43188  97.5662  26.7039 0009616   0.9806 359.1441 15.11440860396749
S-Net C
1 43189U 18014K   25123.30442424  .00008887  00000-0  52891-3 0  9994
2 43189  97.5679  26.7186 0010843 352.2091   7.8968 15.11415445395295
Ten-Koh
1 43677U 18084G   25123.45171789  .00004640  00000-0  37420-3 0  9996
2 43677  98.0912 294.2329 0007613  50.7387 309.4510 15.00395221354671
PO-101
1 43678U 18084H   25123.85654553  .00003028  00000-0  26059-3 0  9991
2 43678  98.1030 298.5888 0009431  52.4423 307.7654 14.98159720354882
QO-100
1 43700U 18090A   25123.17538564  .00000134  00000-0  00000-0 0  9992
2 43700   0.0161 262.3199 0001554 170.3038 237.6290  1.00269698 23569
MinXSS-2
1 43758U 18099A   25123.45706076  .00027362  00000-0  11106-2 0  9993
2 43758  97.5035 189.4013 0010439 284.7296  75.2784 15.24519862351318
AO-95
1 43770U 18099N   25123.11397516  .00016773  00000-0  86152-3 0  9993
2 43770  97.4940 181.6271 0009942 350.5520   9.5525 15.16525328350873
RANGE-A
1 43773U 18099R   25123.59706448  .00008042  00000-0  51552-3 0  9992
2 43773  97.4518 173.0736 0010024 326.1640  33.8948 15.08735468350646
MOVE-II
1 43780U 18099Y   25123.72941923  .00188514  00000-0  20664-2 0  9996
2 43780  97.4673 196.9385 0005117 228.5939 131.4879 15.62620422352028
SNUSat 2
1 43782U 18099AA  25123.60291212  .00012664  00000-0  69911-3 0  9995
2 43782  97.4625 179.1595 0010355 281.4578  78.5491 15.14025491350908
SnugLite
1 43784U 18099AC  25123.61397921  .00015628  00000-0  79648-3 0  9993
2 43784  97.4440 178.6594 0001768 282.0385  78.0650 15.16853116351031
ITASat 1
1 43786U 18099AE  25123.10536815  .00012265  00000-0  70726-3 0  9998
2 43786  97.4592 178.2887 0013559 341.4891  18.5845 15.12437325350798
EAGLET 1
1 43790U 18099AJ  25123.61265688  .00007106  00000-0  45606-3 0  9993
2 43790  97.4795 178.8588 0010769 322.6621  37.3859 15.08730059350490
ESEO
1 43792U 18099AL  25123.50761504  .00002352  00000-0  18152-3 0  9995
2 43792  97.4491 172.5146 0010539 295.2662  64.7471 15.02462375350256
CSIM
1 43793U 18099AM  25123.76513044  .00177536  00000-0  19606-2 0  9999
2 43793  97.4846 199.1875 0007338 232.4969 127.5622 15.62448584351878
JO-97
1 43803U 18099AX  25123.13610363  .00018795  00000-0  87561-3 0  9991
2 43803  97.4684 182.5658 0005977 271.5286  88.5265 15.19933040351088
Suomi 100
1 43804U 18099AY  25123.42152667  .00016179  00000-0  80503-3 0  9995
2 43804  97.4754 182.2467 0010818 275.8217  84.1783 15.17640410351062
ISAT
1 43879U 18111D   25123.32717534  .00033179  00000-0  11966-2 0  9996
2 43879  97.5972  36.9353 0007876 346.1949  13.9074 15.28429002348007
UWE-4
1 43880U 18111E   25123.47621564  .00024291  00000-0  97912-3 0  9992
2 43880  97.5917  35.8152 0011640 352.5821   7.5242 15.24767302347972
Sparrow
1 43881U 18111F   25123.27251520  .00034415  00000-0  11989-2 0  9990
2 43881  97.6112  39.6174 0007936  30.0749 330.0945 15.29555019348089
Prox-1
1 44339U 19036A   25123.52459378  .00017430  00000-0  22598-2 0  9991
2 44339  23.9974 305.0617 0007835  12.5443 347.5248 14.79167780312529
SONATE
1 44400U 19038Q   25123.60403096  .00197499  00000-0  10988-2 0  9991
2 44400  97.6961 146.0009 0005037  60.5236 299.6532 15.78905291323718
